Vinton, IA

4:07 AM CST on February 21, 2018 (GMT -0600)
Vinton-Veterans Memorial

Weather History for KVTI - March, 2012

Change the Weather History Date:

Sunday, March 11, 2012

  Actual Average Record
Temperature  
Mean Temperature 48 °F -  
Max Temperature 62 °F 45 °F 71 °F (1972)
Min Temperature 35 °F 26 °F 2 °F (1969)
Degree Days  
Heating Degree Days 16    
Moisture  
Dew Point 34 °F    
Average Humidity 58    
Maximum Humidity 94    
Minimum Humidity 26    
Precipitation  
Precipitation 0.08 in - - ()
Sea Level Pressure  
Sea Level Pressure 30.03 in    
Wind  
Wind Speed 10 mph (SSE)    
Max Wind Speed 22 mph    
Max Gust Speed 30 mph    
Visibility 9 miles    
Events Rain    
Averages and records for this station are not official NWS values.
T = Trace of Precipitation, MM = Missing Value Source: NWS Daily Summary

Daily Weather History Graph

Daily Weather History Graph

Search for Another Location

Airport or City:

Trip Planner

Search our weather history database for the weather conditions in past years. The results will help you decide how hot, cold, wet, or windy it might be!

Date:

Astronomy

Mar. 11, 2012 Rise Set
Actual Time 7:25 AM CDT 7:10 PM CDT
Civil Twilight 6:58 AM CDT 7:38 PM CDT
Nautical Twilight 6:25 AM CDT 8:11 PM CDT
Astronomical Twilight 5:52 AM CDT 8:43 PM CDT
Moon 11:41 PM CDT (3/11) 8:56 AM CDT (3/11)
Length of Visible Light 12h 40m
Length of Day
11h 44m
Waning Gibbous, 85% of the Moon is Illuminated
Mar 11
Waning Gibbous
Mar 14
Last Quarter
Mar 22
New
Mar 30
First Quarter
Apr 6
Full

Hourly Weather History & Observations

Time (CDT) Temp. Windchill Dew Point Humidity Pressure Visibility Wind Dir Wind Speed Gust Speed Precip Events Conditions
12:15 AM 46.4 °F 41.9 °F 32.0 °F 57% 30.13 in 10.0 mi South 9.2 mph - N/A   Clear
12:35 AM 46.4 °F 41.9 °F 30.2 °F 53% 30.12 in 10.0 mi South 9.2 mph - N/A   Clear
12:55 AM 46.4 °F 41.9 °F 30.2 °F 53% 30.12 in 10.0 mi South 9.2 mph 16.1 mph N/A   Clear
1:15 AM 46.4 °F 42.4 °F 32.0 °F 57% 30.12 in 10.0 mi South 8.1 mph - N/A   Clear
1:35 AM 42.8 °F 38.6 °F 30.2 °F 61% 30.12 in 10.0 mi SSE 6.9 mph - N/A   Clear
1:55 AM 41.0 °F 37.1 °F 30.2 °F 65% 30.13 in 10.0 mi South 5.8 mph - N/A   Clear
3:15 AM 41.0 °F 36.4 °F 30.2 °F 65% 30.12 in 10.0 mi SSE 6.9 mph - N/A   Clear
3:35 AM 41.0 °F 37.1 °F 30.2 °F 65% 30.12 in 10.0 mi South 5.8 mph - N/A   Clear
3:55 AM 39.2 °F 34.2 °F 30.2 °F 70% 30.12 in 10.0 mi South 6.9 mph - N/A   Clear
4:15 AM 39.2 °F 34.2 °F 28.4 °F 65% 30.12 in 10.0 mi SSE 6.9 mph - N/A   Clear
4:35 AM 37.4 °F 32.8 °F 30.2 °F 75% 30.12 in 10.0 mi SSE 5.8 mph - N/A   Clear
4:55 AM 37.4 °F 32.1 °F 30.2 °F 75% 30.11 in 10.0 mi SSE 6.9 mph - N/A   Clear
5:15 AM 37.4 °F 32.8 °F 30.2 °F 75% 30.11 in 10.0 mi SSE 5.8 mph - N/A   Clear
5:35 AM 37.4 °F 32.8 °F 28.4 °F 70% 30.12 in 10.0 mi SSE 5.8 mph - N/A   Clear
5:55 AM 35.6 °F 29.9 °F 28.4 °F 75% 30.12 in 10.0 mi SSE 6.9 mph - N/A   Clear
6:15 AM 35.6 °F 29.2 °F 28.4 °F 75% 30.13 in 10.0 mi SSE 8.1 mph - N/A   Clear
7:15 AM 35.6 °F 29.2 °F 26.6 °F 70% 30.14 in 10.0 mi SSE 8.1 mph - N/A   Clear
7:35 AM 35.6 °F 29.2 °F 28.4 °F 75% 30.14 in 10.0 mi SSE 8.1 mph - N/A   Clear
7:55 AM 35.6 °F 29.9 °F 28.4 °F 75% 30.14 in 10.0 mi SSE 6.9 mph - N/A   Clear
8:15 AM 35.6 °F 29.2 °F 26.6 °F 70% 30.15 in 10.0 mi SSE 8.1 mph - N/A   Clear
8:35 AM 37.4 °F 31.4 °F 28.4 °F 70% 30.14 in 10.0 mi SSE 8.1 mph - N/A   Clear
8:55 AM 41.0 °F 35.8 °F 28.4 °F 61% 30.14 in 10.0 mi SSE 8.1 mph - N/A   Clear
9:15 AM 42.8 °F 37.5 °F 28.4 °F 57% 30.14 in 10.0 mi SSE 9.2 mph - N/A   Clear
9:35 AM 48.2 °F - 32.0 °F 54% 30.14 in 10.0 mi South 10.4 mph - N/A   Clear
9:55 AM 50.0 °F - 30.2 °F 47% 30.13 in 10.0 mi SSE 9.2 mph - N/A   Clear
10:15 AM 53.6 °F - 30.2 °F 41% 30.12 in 10.0 mi South 9.2 mph - N/A   Clear
10:35 AM 53.6 °F - 30.2 °F 41% 30.12 in 10.0 mi South 10.4 mph - N/A   Clear
10:55 AM 53.6 °F - 28.4 °F 38% 30.12 in 10.0 mi South 10.4 mph - N/A   Clear
11:15 AM 55.4 °F - 28.4 °F 36% 30.12 in 10.0 mi South 13.8 mph - N/A   Clear
11:35 AM 55.4 °F - 28.4 °F 36% 30.12 in 10.0 mi South 13.8 mph - N/A   Clear
11:55 AM 55.4 °F - 30.2 °F 38% 30.11 in 10.0 mi South 9.2 mph - N/A   Clear
12:15 PM 55.4 °F - 30.2 °F 38% 30.10 in 10.0 mi South 10.4 mph - N/A   Clear
12:35 PM 55.4 °F - 28.4 °F 36% 30.10 in 10.0 mi SSE 12.7 mph 18.4 mph N/A   Clear
12:55 PM 55.4 °F - 28.4 °F 36% 30.10 in 10.0 mi SSE 12.7 mph - N/A   Clear
1:15 PM 55.4 °F - 28.4 °F 36% 30.09 in 10.0 mi SSE 13.8 mph - N/A   Clear
1:35 PM 59.0 °F - 28.4 °F 31% 30.08 in 10.0 mi SSE 13.8 mph - N/A   Clear
1:55 PM 59.0 °F - 28.4 °F 31% 30.07 in 10.0 mi SSE 15.0 mph - N/A   Clear
2:15 PM 59.0 °F - 28.4 °F 31% 30.06 in 10.0 mi SE 13.8 mph 21.9 mph N/A   Clear
2:35 PM 60.8 °F - 28.4 °F 29% 30.03 in 10.0 mi SSE 16.1 mph 24.2 mph N/A   Clear
2:55 PM 62.6 °F - 28.4 °F 27% 30.00 in 10.0 mi SE 15.0 mph 19.6 mph N/A   Clear
3:15 PM 62.6 °F - 28.4 °F 27% 29.98 in 10.0 mi ESE 12.7 mph 17.3 mph N/A   Clear
3:35 PM 62.6 °F - 26.6 °F 26% 29.98 in 10.0 mi SSE 15.0 mph - N/A   Clear
4:35 PM 60.8 °F - 30.2 °F 31% 29.97 in 10.0 mi SSE 15.0 mph 23.0 mph N/A   Overcast
4:55 PM 60.8 °F - 32.0 °F 34% 29.96 in 10.0 mi SSE 17.3 mph 23.0 mph N/A   Overcast
5:15 PM 60.8 °F - 32.0 °F 34% 29.95 in 10.0 mi SE 16.1 mph 20.7 mph N/A   Overcast
5:35 PM 60.8 °F - 32.0 °F 34% 29.94 in 10.0 mi SE 16.1 mph 24.2 mph N/A   Mostly Cloudy
5:55 PM 60.8 °F - 33.8 °F 36% 29.93 in 10.0 mi SE 12.7 mph - N/A   Overcast
6:35 PM 59.0 °F - 33.8 °F 39% 29.92 in 10.0 mi SE 10.4 mph - N/A   Overcast
6:55 PM 59.0 °F - 33.8 °F 39% 29.92 in 10.0 mi SE 9.2 mph 16.1 mph N/A   Overcast
7:15 PM 59.0 °F - 35.6 °F 42% 29.91 in 10.0 mi SE 8.1 mph - N/A   Overcast
7:35 PM 59.0 °F - 37.4 °F 45% 29.91 in 10.0 mi SSE 10.4 mph - N/A   Overcast
8:15 PM 53.6 °F - 46.4 °F 77% 29.91 in 7.0 mi SSE 16.1 mph - N/A Rain Rain
8:35 PM 53.6 °F - 50.0 °F 88% 29.89 in 5.0 mi SE 16.1 mph 23.0 mph N/A   Light Drizzle
8:55 PM 53.6 °F - 50.0 °F 88% 29.88 in 7.0 mi SE 13.8 mph - N/A Rain Light Rain
9:15 PM 53.6 °F - 50.0 °F 88% 29.87 in 7.0 mi SE 11.5 mph - N/A Rain Light Rain
9:35 PM 53.6 °F - 50.0 °F 88% 29.85 in 7.0 mi SE 11.5 mph - N/A   Drizzle
9:55 PM 53.6 °F - 50.0 °F 88% 29.85 in 7.0 mi SE 11.5 mph - N/A Rain Light Rain
10:15 PM 51.8 °F - 48.2 °F 88% 29.85 in 5.0 mi SE 16.1 mph - 0.02 in Rain Rain
10:35 PM 51.8 °F - 50.0 °F 94% 29.84 in 5.0 mi SE 13.8 mph 20.7 mph 0.05 in Rain Rain
10:55 PM 51.8 °F - 48.2 °F 88% 29.84 in 5.0 mi SE 17.3 mph 21.9 mph 0.07 in Rain Rain
11:15 PM 51.8 °F - 48.2 °F 88% 29.83 in 10.0 mi SE 21.9 mph 29.9 mph N/A   Drizzle
11:35 PM 51.8 °F - 48.2 °F 88% 29.83 in 4.0 mi SSE 18.4 mph 28.8 mph 0.01 in Rain Light Rain
11:55 PM 51.8 °F - 48.2 °F 88% 29.82 in 7.0 mi SSE 16.1 mph 21.9 mph 0.01 in   Light Drizzle
12:15 AM 51.8 °F - 48.2 °F 88% 29.81 in 7.0 mi SSE 16.1 mph 24.2 mph N/A Rain Light Rain
12:35 AM 50.0 °F - 46.4 °F 87% 29.80 in 7.0 mi SSE 16.1 mph 25.3 mph N/A   Overcast
12:55 AM 50.0 °F - 46.4 °F 87% 29.80 in 7.0 mi SSE 15.0 mph 21.9 mph N/A   Overcast